DECAYED

STARLINK-3775, 52285 (Decayed)

Orbit data source: Space-Track

STARLINK-3775, 52285 was a payload satellite owned by SpaceX/Seattle (US) in LEO that was launched on Thu, 21 Apr 2022 UTC via an FALCON 9 launch vehicle from the Air Force Eastern Test Range (AFETR). Payload-class satellites include a variety of spacecraft equipped with specific instruments for various scientific and technological missions. These include communications satellites like Starlink; space stations such as the ISS; scientific satellites like the Hubble; Earth observation satellites from companies like Planet Labs, Umbra, and HawkEye 360; GPS; miniature CubeSats for education and research; and military/defense satellites.

Not visible in the next 10 days
Identifier
52285, 2022-041AA
Orbit
Decayed
Country
Flag of USUS
Related business
Manufacturer
SpaceX/Seattle
Mission
Decayed Commercial Communications
Bus & Motor
STARLINK, Unknown motor
Mass
297 kg wet, ~275 kg dry
Launch date (UTC)
2022-04-21 (4 years ago)
Launch vehicle
FALCON 9
Launch site
Air Force Eastern Test Range (AFETR)
Object type
Payload
Rocket body
Debris
Shape & HBR
Box + 1 Pan, 10.1 m
Radar Cross Section
11.087 m², Large (>1 m²)

Expand to show TLE details & history
Last TLE update: 10 months ago

TLE from 10 months ago
0 STARLINK-3775
1 52285U 22041AA  25232.29061970  .39483828  12976-4  12817-3 0  9995
2 52285  53.2444 268.6417 0014928  59.1799  23.5089 16.58124573185513
Epoch: 2025-08-20T06:58Z
TLE epoch observation values (Epoch: 2025-08-20T06:58:29.542Z)
Latitude
52.79574°
Longitude
-86.85617°
Altitude
115.543 km
Speed
7.849 km/s
True Right ascension
23h 06m 32s
True Declination
52° 36' 49"
Sunlit
Object was in full shadow at epoch
Visualization orbit readout
Latitude
Unknown
Longitude
Unknown
Altitude
Unknown
Speed
Unknown
Apparent Right ascension
Unknown
Apparent Declination
Unknown
Sunlit
N/A
Visualization observer readout
Local Sidereal Time
10:32:38
Azimuth
Unknown
Elevation
Unknown
Doppler factor
Unknown
Orbital elements
Apogee altitude
127.982 km
Perigee altitude
108.586 km
Semi-major axis
6,496.421 km
Eccentricity
0.00149
Inclination
53.2444°
RAAN
268.6417°
Arg. of periapsis
59.1799°
True anomaly
23.57725°
Mean anomaly
23.5089°
Eccentric anomaly
23.54306°
Mean motion
4.14507 °/min
Orbital period
86.85 mins
BSTAR
0.00012817
Loading maneuver chart data...
Computing Atmospheric mass density...
Loading historical data...
Loading historical data...
Loading historical data...
Loading historical data...
Loading historical data...
Loading historical data...
Loading historical data...

Documentation

Showing up to 5 results
|